Location: Cisewo
(53.3833°N, 14.9000°E)
Time: 11:53:19
(UTC+00:00)

Cosmos 1689 Rocket - Pass Details

Date: 18 April 2021
Orbit: 345 x 359 km, 97.5° (Epoch: 15 May)

Event Time Altitude Azimuth Distance (km) Brightness Sun altitude
Rises 18:56:48 0° 5° (N) 2,202 6.3 -7.6°
Reaches altitude 10° 18:58:54 10° 353° (N) 1,346 5.4 -7.8°
Maximum altitude 19:01:23 27° 293° (WNW) 730 4.5 -8.2°
Drops below altitude 10° 19:03:50 10° 232° (SW) 1,327 5.1 -8.5°
Sets 19:05:53 0° 220° (SW) 2,162 6.0 -8.7°
